Location: Dittelbrunn
(50.0738°N, 10.2196°E)
Time: 07:06:17
(UTC+00:00)

Cosmos 372 Rocket - Pass Details

Date: 18 September 2020
Orbit: 739 x 767 km, 74.1° (Epoch: 19 October)

Event Time Altitude Azimuth Distance (km) Brightness Sun altitude
Rises 18:44:00 0° 189° (S) 3,223 7.1 -13.2°
Reaches altitude 10° 18:46:23 10° 186° (S) 2,300 6.3 -13.6°
Maximum altitude 18:51:31 59° 108° (ESE) 887 4.0 -14.3°
Drops below altitude 10° 18:56:39 10° 30° (NNE) 2,306 6.4 -15.1°
Sets 18:59:02 0° 27° (NNE) 3,232 7.2 -15.5°
